Location: Newark
(34.1333°N, 7.9667°W)
Time: 08:34:07
(UTC+00:00)

S-56A Canister/Altair - Pass Details

Date: 11 December 2021
Orbit: 634 x 2499 km, 38.9° (Epoch: 25 January)

Event Time Altitude Azimuth Distance (km) Brightness Sun altitude
Rises 22:43:34 0° 256° (WSW) 6,028 12.4 -65.2°
Reaches altitude 10° 22:47:48 10° 258° (WSW) 4,867 11.8 -66.0°
Enters shadow 22:50:43 19° 260° (W) 4,061 11.3 -66.5°
